Vancouver, British Columbia

1:18 AM PDT on May 27, 2017 (GMT -0700)
Vancouver International Airport

Weather History for CYVR - December, 2013

Change the Weather History Date:

Monday, December 2, 2013

  Actual Average Record
Temperature  
Mean Temperature 38 °F -  
Max Temperature 44 °F 43 °F 51 °F (2000)
Min Temperature 32 °F 33 °F 21 °F (2014)
Degree Days  
Heating Degree Days 27    
Moisture  
Dew Point 32 °F    
Average Humidity 77    
Maximum Humidity 87    
Minimum Humidity 62    
Precipitation  
Precipitation 0.02 in 0.23 in - ()
Sea Level Pressure  
Sea Level Pressure 29.90 in    
Wind  
Wind Speed 17 mph ()    
Max Wind Speed 26 mph    
Max Gust Speed 33 mph    
Visibility 16.9 miles    
Events Rain    
Averages and records for this station are not official NWS values.
T = Trace of Precipitation, MM = Missing Value Source: Averaged Metar Reports

Daily Weather History Graph

Daily Weather History Graph

Search for Another Location

Airport or City:

Trip Planner

Search our weather history database for the weather conditions in past years. The results will help you decide how hot, cold, wet, or windy it might be!

Date:

Astronomy

Dec. 02, 2013 Rise Set
Actual Time 7:47 AM PST 4:16 PM PST
Civil Twilight 7:11 AM PST 4:53 PM PST
Nautical Twilight 6:31 AM PST 5:33 PM PST
Astronomical Twilight 5:52 AM PST 6:11 PM PST
Moon 7:15 AM PST (12/2) 4:27 PM PST (12/2)
Length of Visible Light 9h 42m
Length of Day
8h 28m
Waning Crescent, 0% of the Moon is Illuminated
Dec 2
Waning Crescent
Dec 2
New
Dec 9
First Quarter
Dec 17
Full
Dec 25
Last Quarter

Hourly Weather History & Observations

Time (PST) Temp. Windchill Dew Point Humidity Pressure Visibility Wind Dir Wind Speed Gust Speed Precip Events Conditions
12:00 AM 39.2 °F 28.3 °F 33.8 °F 81% 29.75 in 15.0 mi WNW 25.3 mph 32.2 mph N/A   Mostly Cloudy
12:38 AM 37.4 °F 25.6 °F 33.8 °F 87% 29.76 in 15.0 mi West 26.5 mph 33.4 mph N/A Rain Light Rain
12:48 AM 37.4 °F 26.6 °F 33.8 °F 87% 29.76 in 15.0 mi WNW 21.9 mph 28.8 mph N/A   Overcast
1:00 AM 37.4 °F 27.2 °F 33.8 °F 87% 29.77 in 15.0 mi West 19.6 mph 25.3 mph N/A Rain Light Rain Showers
1:48 AM 37.4 °F 26.9 °F 33.8 °F 87% 29.77 in 15.0 mi WNW 20.7 mph - N/A   Mostly Cloudy
2:00 AM 37.4 °F 28.9 °F 33.8 °F 87% 29.77 in 15.0 mi WNW 13.8 mph - N/A   Mostly Cloudy
3:00 AM 37.4 °F 26.6 °F 33.8 °F 87% 29.77 in 15.0 mi WNW 21.9 mph 29.9 mph N/A   Overcast
4:00 AM 38 °F - 32 °F 71% 29.78 in 15 mi WNW 18.4 mph - -   Partly Cloudy
4:00 AM 39.2 °F 28.5 °F 32.0 °F 75% 29.78 in 15.0 mi West 24.2 mph - N/A   Mostly Cloudy
5:00 AM 39.2 °F 29.8 °F 33.8 °F 81% 29.78 in 15.0 mi West 18.4 mph - N/A   Scattered Clouds
6:00 AM 37.4 °F 26.1 °F 33.8 °F 87% 29.78 in 15.0 mi West 24.2 mph 29.9 mph N/A   Partly Cloudy
7:00 AM 39.2 °F 28.3 °F 30.2 °F 70% 29.79 in 15.0 mi WNW 25.3 mph - N/A   Mostly Cloudy
8:00 AM 39.2 °F 28.7 °F 32.0 °F 75% 29.81 in 15.0 mi West 23.0 mph 31.1 mph N/A   Mostly Cloudy
9:00 AM 39.2 °F 29.0 °F 32.0 °F 75% 29.83 in 20.0 mi WNW 21.9 mph 27.6 mph N/A   Mostly Cloudy
10:00 AM 40 °F - 32 °F 63% 29.84 in 19 mi WNW 21.9 mph - -   Scattered Clouds
10:00 AM 39.2 °F 29.3 °F 32.0 °F 75% 29.84 in 20.0 mi WNW 20.7 mph - N/A   Scattered Clouds
11:00 AM 41.0 °F 31.4 °F 32.0 °F 70% 29.85 in 20.0 mi WNW 21.9 mph - N/A   Scattered Clouds
12:00 PM 42.8 °F 34.0 °F 33.8 °F 70% 29.86 in 20.0 mi West 20.7 mph 26.5 mph N/A   Mostly Cloudy
1:00 PM 42.8 °F 34.8 °F 33.8 °F 70% 29.88 in 20.0 mi WNW 17.3 mph - N/A   Scattered Clouds
2:00 PM 42.8 °F 35.8 °F 33.8 °F 70% 29.91 in 20.0 mi WNW 13.8 mph - N/A   Mostly Cloudy
3:00 PM 42.8 °F 36.6 °F 33.8 °F 70% 29.93 in 20.0 mi WNW 11.5 mph - N/A   Mostly Cloudy
4:00 PM 42 °F - 33 °F 62% 29.96 in 19 mi NW 8.1 mph - -   Scattered Clouds
4:00 PM 41.0 °F 35.2 °F 33.8 °F 76% 29.96 in 20.0 mi NW 9.2 mph - N/A   Mostly Cloudy
4:41 PM 39.2 °F 30.8 °F 33.8 °F 81% 29.98 in 20.0 mi East 15.0 mph - N/A   Mostly Cloudy
5:00 PM 39.2 °F 31.6 °F 33.8 °F 81% 29.99 in 20.0 mi East 12.7 mph - N/A   Mostly Cloudy
6:00 PM 37.4 °F 28.9 °F 33.8 °F 87% 30.02 in 20.0 mi East 13.8 mph - N/A   Mostly Cloudy
6:38 PM 35.6 °F 28.0 °F 32.0 °F 87% 30.04 in 15.0 mi East 10.4 mph - N/A   Overcast
7:00 PM 35.6 °F 27.5 °F 30.2 °F 81% 30.04 in 15.0 mi East 11.5 mph - N/A   Mostly Cloudy
8:00 PM 33.8 °F 26.4 °F 28.4 °F 81% 30.08 in 15.0 mi ESE 9.2 mph - N/A   Partly Cloudy
9:00 PM 32.0 °F 24.8 °F 24.8 °F 75% 30.09 in 15.0 mi East 8.1 mph - N/A   Partly Cloudy
10:00 PM 32 °F - 24 °F 62% 30.13 in 15 mi East 4.6 mph - -   Mostly Cloudy
10:00 PM 32.0 °F 27.5 °F 24.8 °F 75% 30.12 in 15.0 mi East 4.6 mph - N/A   Mostly Cloudy
11:00 PM 32.0 °F - 24.8 °F 75% 30.14 in 15.0 mi Calm Calm - N/A   Clear